STARLINK-32853, 62818

Orbit data source: Space-Track

STARLINK-32853, 62818 is a payload satellite owned by SpaceX/Seattle (US) in LEO that was launched on Fri, 24 Jan 2025 UTC via an FALCON 9 launch vehicle from the Air Force Western Test Range (AFWTR). Payloads include a variety of satellites, spacecraft, and rockets equipped with specific instruments for various scientific and technological missions. These include communications satellites like Starlink; space stations such as the ISS; scientific satellites like the Hubble; Earth observation satellites from companies like Planet Labs, Umbra, and HawkEye 360; GPS; miniature CubeSats for education and research; and military/defense satellites.

Loading next visibility...
STARLINK-32853 details
Identifier
62818, 2025-018N
Orbit
LEO
Last TLE update8 hours ago
Origin
Flag of USSpaceX/Seattle (US)
ManufacturerSpaceX/Seattle
MissionOperational spacecraft
Bus & MotorSTARLINK V2M, Unknown motor
Mass730 kg wet, ~700 kg dry
Launch date (UTC)
2025-01-24 (3 weeks ago)
Launch vehicle
FALCON 9
Launch site
Air Force Western Test Range (AFWTR)
Object type
Payload
Rocket body
Debris
Shape & HBRUnknown
Radar Cross SectionLarge (>1 m²)

Expand to show TLE details & history

TLE from 8 hours ago
0 STARLINK-32853
1 62818U 25018N   25047.16668981 -.01595074  00000-0 -25312-1 0  9991
2 62818  53.1590 312.5033 0000729  77.0880 283.7038 15.55651714  4796
Epoch: 2025-02-16T04:00Z
Definitive object data (Epoch: 2025-02-16T04:00:01.999Z)
Latitude0.54959°
Longitude106.5008°
Altitude400.982 km
Speed7.671 km/s
True Right ascension20h 51m 39s
True Declination0° 32' 46"
Sunlit
Object was in daylight at TLE epoch
Visualization TLE readout
Latitude2.21581°
Longitude106.1911°
Altitude404.023 km
Speed7.67 km/s
Apparent Right ascension23h 06m 37s
Apparent Declination-23° 37' 12"
Sunlit
Object is in daylight
Visualization observer readout
Local Sidereal Time14:29:42
Azimuth84.809° E
Elevation-44.548°
Doppler factor1
Orbital elements
Apogee altitude401.012 km
Perigee altitude400.024 km
Semi-major axis6,778.655 km
Eccentricity0.0000729
Inclination53.159°
RAAN312.5033°
Arg. of periapsis77.088°
True anomaly283.69568°
Mean anomaly283.7038°
Eccentric anomaly283.69974°
Mean motion3.88891 °/min
BSTAR-0.025312
Orbital period92.57 mins
Loading maneuver chart data...
Loading historical data...
Loading historical data...
Loading historical data...
Loading historical data...
Loading historical data...
Loading historical data...
Loading historical data...

STARLINK-32853 Visibility forecast

Observer location: undefined°, undefined

Span
Click to sort rows by Start time (UTC) header in descending order
Start Az.
Max El. time (UTC)
Max El. Az.
Max El.
End time (UTC)
End Az.
5 mins2025-02-16 19:35:17.795Z187.693° SSW2025-02-16 19:37:17.795Z144.793° SSE24.037°2025-02-16 19:40:17.795Z73.615° E
4 mins2025-02-16 21:12:17.795Z278.911° WNW2025-02-16 21:14:17.795Z339.454° N26.07°2025-02-16 21:16:17.795Z26.079° NE
4 mins2025-02-17 03:41:17.795Z279.256° WNW2025-02-17 03:43:17.795Z208.713° SW29.414°2025-02-17 03:45:17.795Z163.346° S
|